Minot AFB, ND

3:47 AM CDT on October 21, 2019 (GMT -0500)
Minot Air Force Base

Weather History for KMIB - September, 2019

Change the Weather History Date:

Monday, September 16, 2019

  Actual Average Record
Temperature  
Mean Temperature 67 °F -  
Max Temperature 87 °F 67 °F 87 °F (1998)
Min Temperature 48 °F 42 °F 39 °F (1999)
Cooling Degree Days 2    
Growing Degree Days 17 (Base 50)    
Moisture  
Dew Point 58 °F    
Average Humidity 88    
Maximum Humidity 100    
Minimum Humidity 50    
Precipitation  
Precipitation 0.00 in - - ()
Sea Level Pressure  
Sea Level Pressure 29.71 in    
Wind  
Wind Speed 2 mph (ESE)    
Max Wind Speed 9 mph    
Max Gust Speed -    
Visibility 6 miles    
Events Fog    
Averages and records for this station are not official NWS values.
T = Trace of Precipitation, MM = Missing Value Source: NWS Daily Summary

Daily Weather History Graph

Daily Weather History Graph

Search for Another Location

Airport or City:

Astronomy

Sep. 16, 2019 Rise Set
Actual Time 7:23 AM CDT 7:56 PM CDT
Civil Twilight 6:51 AM CDT 8:27 PM CDT
Nautical Twilight 6:14 AM CDT 9:04 PM CDT
Astronomical Twilight 5:35 AM CDT 9:43 PM CDT
Moon 9:22 PM CDT (9/16) 9:39 AM CDT (9/16)
Length of Visible Light 13h 35m
Length of Day
12h 32m
Waning Gibbous, 94% of the Moon is Illuminated
Sep 16
Waning Gibbous
Sep 21
Last Quarter
Sep 28
New
Oct 5
First Quarter
Oct 13
Full

Hourly Weather History & Observations

Time (CDT) Temp. Heat Index Dew Point Humidity Pressure Visibility Wind Dir Wind Speed Gust Speed Precip Events Conditions
12:56 AM 58.3 °F - 56.5 °F 94% 29.74 in 10.0 mi Calm Calm - N/A   Clear
1:56 AM 57.2 °F - 55.4 °F 94% 29.74 in 10.0 mi East 5.8 mph - N/A   Clear
2:56 AM 56.1 °F - 55.0 °F 96% 29.74 in 10.0 mi Calm Calm - N/A   Clear
3:56 AM 55.6 °F - 54.7 °F 97% 29.74 in 10.0 mi East 3.5 mph - N/A   Clear
4:56 AM 51.6 °F - 50.7 °F 97% 29.73 in 9.0 mi Calm Calm - N/A   Clear
5:49 AM 51.8 °F - 51.8 °F 100% 29.73 in 4.0 mi Calm Calm - N/A   Mist
5:56 AM 51.1 °F - 50.5 °F 98% 29.73 in 0.5 mi Calm Calm - N/A Fog Fog
6:01 AM 51.8 °F - 50.0 °F 94% 29.73 in 0.2 mi Calm Calm - N/A Fog Fog
6:51 AM 50.0 °F - 50.0 °F 100% 29.74 in 0.2 mi Calm Calm - N/A Fog Fog
6:56 AM 50.0 °F - 49.6 °F 99% 29.74 in 0.6 mi Calm Calm - N/A   Mist
7:06 AM 50.0 °F - 48.2 °F 94% 29.74 in 0.4 mi Calm Calm - N/A Fog Fog
7:16 AM 48.2 °F - 48.2 °F 100% 29.75 in 0.1 mi Calm Calm - N/A Fog Fog
7:56 AM 50.7 °F - 50.4 °F 99% 29.75 in 0.1 mi Calm Calm - N/A Fog Fog
8:11 AM 51.8 °F - 51.8 °F 100% 29.75 in 0.1 mi Calm Calm - N/A Fog Fog
8:21 AM 53.6 °F - 53.6 °F 100% 29.75 in 0.2 mi Calm Calm - N/A Fog Fog
8:31 AM 53.6 °F - 53.6 °F 100% 29.75 in - Calm Calm - N/A Fog Fog
8:41 AM 53.6 °F - 53.6 °F 100% 29.75 in 0.1 mi Calm Calm - N/A Fog Fog
8:56 AM 54.7 °F - 54.3 °F 99% 29.75 in 0.4 mi Calm Calm - N/A Fog Fog
9:26 AM 57.2 °F - 57.2 °F 100% 29.75 in 0.5 mi Calm Calm - N/A Fog Fog
9:36 AM 57.2 °F - 57.2 °F 100% 29.75 in 0.6 mi Calm Calm - N/A   Mist
9:56 AM 57.9 °F - 57.6 °F 99% 29.75 in 0.2 mi Calm Calm - N/A Fog Fog
10:06 AM 59.0 °F - 59.0 °F 100% 29.75 in 4.0 mi Calm Calm - N/A   Overcast
10:21 AM 60.8 °F - 60.8 °F 100% 29.74 in 7.0 mi Calm Calm - N/A   Clear
10:59 AM 66.0 °F - 66.0 °F 100% 29.73 in 10.0 mi Calm Calm - N/A   Clear
11:56 AM 73.6 °F - 62.8 °F 69% 29.72 in 10.0 mi East 9.2 mph - N/A   Clear
12:56 PM 77.0 °F - 64.2 °F 65% 29.70 in 10.0 mi East 6.9 mph - N/A   Clear
1:56 PM 79.7 °F - 64.9 °F 61% 29.69 in 10.0 mi East 5.8 mph - N/A   Clear
2:56 PM 82.9 °F 85.0 °F 65.7 °F 56% 29.67 in 6.0 mi SE 8.1 mph - N/A   Haze
3:42 PM 84.2 °F 86.6 °F 66.2 °F 55% 29.67 in 7.0 mi SE 6.9 mph - N/A   Clear
4:56 PM 86.5 °F 88.7 °F 65.7 °F 50% 29.64 in 10.0 mi ESE 6.9 mph - N/A   Clear
5:56 PM 86.5 °F 89.6 °F 67.8 °F 53% 29.63 in 10.0 mi East 9.2 mph - N/A   Clear
6:56 PM 83.3 °F 86.2 °F 67.5 °F 59% 29.63 in 10.0 mi East 9.2 mph - N/A   Clear
7:56 PM 76.5 °F - 66.7 °F 72% 29.64 in 10.0 mi East 5.8 mph - N/A   Clear
8:56 PM 69.8 °F - 65.7 °F 87% 29.64 in 10.0 mi ESE 3.5 mph - N/A   Clear
9:56 PM 68.7 °F - 63.7 °F 84% 29.64 in 10.0 mi SSE 8.1 mph - N/A   Clear
10:56 PM 66.6 °F - 62.6 °F 87% 29.64 in 10.0 mi SSE 5.8 mph - N/A   Clear
11:56 PM 65.1 °F - 61.7 °F 89% 29.63 in 10.0 mi SSE 5.8 mph - N/A   Clear